CZ-6A DEB, 54335

Orbit data source: Space-Track

CZ-6A DEB, 54335 is space debris in SSO originally from a launch on Fri, 11 Nov 2022 UTC launched from the Taiyaun Space Center, China (TSC). Debris objects in space refer to the collection of defunct objects orbiting the Earth. Examples of debris include non-operational satellites, rocket bodies, and fragments generated from explosions, collisions, or faulty payload assembly.

Loading next visibility...
Identifier
54335, 2022-151CE
Orbit
SSO
Country
Flag of CNCN / PRC
Related business
Manufacturer
SAST
Mission
Spacecraft
Bus & Motor
Unknown
Mass
Unknown
Launch date (UTC)
2022-11-11 (4 years ago)
Launch vehicle
Unknown
Launch site
Taiyaun Space Center, China (TSC)
Object type
Payload
Rocket body
Debris
Shape & HBR
Unknown shape, 0.2 m
Radar Cross Section
Medium (>0.1 m² and <1 m²)

Expand to show TLE details & history
Last TLE update: 1 day ago

TLE from 1 day ago
0 CZ-6A DEB
1 54335U 22151CE  26208.71120101  .00000725  00000-0  40661-3 0  9996
2 54335  98.8220 208.8118 0047949 229.3902 130.3095 14.13181048190393
Epoch: 2026-07-27T17:04Z
TLE epoch observation values (Epoch: 2026-07-27T17:04:07.767Z)
Latitude
0.00004°
Longitude
7.38857°
Altitude
873.925 km
Speed
7.404 km/s
True Right ascension
13h 55m 14s
True Declination
0° 00' 00"
Sunlit
Object was in daylight at epoch
Visualization orbit readout
Latitude
Unknown
Longitude
Unknown
Altitude
Unknown
Speed
Unknown
Apparent Right ascension
Unknown
Apparent Declination
Unknown
Sunlit
N/A
Visualization observer readout
Local Sidereal Time
06:26:01
Azimuth
Unknown
Elevation
Unknown
Doppler factor
Unknown
Orbital elements
Apogee altitude
880.317 km
Perigee altitude
811.042 km
Semi-major axis
7,223.817 km
Eccentricity
0.00479
Inclination
98.822°
RAAN
208.8118°
Arg. of periapsis
229.3902°
True anomaly
130.72687°
Mean anomaly
130.3095°
Eccentric anomaly
130.51835°
Mean motion
3.53503 °/min
Orbital period
101.84 mins
BSTAR
0.00040661
Loading maneuver chart data...
Computing Atmospheric mass density...
Loading historical data...
Loading historical data...
Loading historical data...
Loading historical data...
Loading historical data...
Loading historical data...
Loading historical data...

Documentation

Showing up to 5 results
|